Location: Bercimuel
(41.3983°N, 3.5711°W)
Time: 19:53:39
(UTC+00:00)

Cosmos 2369 - Pass Details

Date: 15 May 2026
Orbit: 836 x 856 km, 71.0° (Epoch: 8 June)

Event Time Altitude Azimuth Distance (km) Brightness Sun altitude
Rises 20:43:25 0° 335° (NNW) 3,429 8.2 -12.9°
Reaches altitude 10° 20:45:53 10° 334° (NNW) 2,491 7.3 -13.2°
Maximum altitude 20:51:37 82° 248° (WSW) 868 3.8 -14.0°
Enters shadow 20:56:06 17° 162° (SSE) 2,025 5.2 -14.7°
